Location: D�derode
(51.8092°N, 10.1065°E)
Time: 22:40:10
(UTC+00:00)

Cosmos 1869 Rocket - Pass Details

Date: 19 April 2021
Orbit: 603 x 634 km, 82.5° (Epoch: 13 May)

Event Time Altitude Azimuth Distance (km) Brightness Sun altitude
Rises 01:16:18 0° 338° (NNW) 2,902 7.5 -22.1°
Reaches altitude 10° 01:19:01 10° 321° (NW) 1,985 6.4 -21.9°
Enters shadow 01:21:26 19° 289° (WNW) 1,471 5.3 -21.7°
